World > North America > United States > Pennsylvania > Portersville  

Portersville, PA Hourly Weather Updates

Feedback E-mail the Weather

Quick Clicks

Portersville, PA Weather Maps

°F °C°F °C
Portersville Weather Map
UTC Time: 4/17/2024, 22:42
Your Time:

Portersville, PA Regional Weather

Expires:202404172300;;920591
ASUS41 KCTP 172210
RWRCTP

REGIONAL WEATHER ROUNDUP
NATIONAL WEATHER SERVICE STATE COLLEGE PA
600 PM EDT WED APR 17 2024

Note: "fair" indicates few or no clouds below 12,000 feet with no 
significant weather and/or obstructions to visibility.

* = STATION THAT DOES NOT REPORT PRECIPITATION /E.G. RAIN...SNOW...ETC/
    THUNDER OR FOG.


PAZ002>004-007>009-013>016-020>023-029>032-172300-
WESTERN PENNSYLVANIA
  
CITY           SKY/WX    TMP DP  RH WIND       PRES   REMARKS
ERIE           LGT RAIN  66  55  67 N3        29.71F                  
MEADVILLE      PTSUNNY   75  52  44 S10G23    29.73F                  
FRANKLIN       PTSUNNY   73  54  51 S13       29.77F                  
NEW CASTLE     CLOUDY    76  53  44 VRB6      29.73F                  
BEAVER COUNTY  PTSUNNY   79  48  33 SW12G21   29.74F                  
BUTLER         PTSUNNY   77  54  44 SW13G22   29.76F                  
PITTSBURGH INT PTSUNNY   81  50  33 SW15G26   29.74F                  
PITTSBURGH     PTSUNNY   81  50  33 SW14G24   29.75F                  
INDIANA*       NOT AVBL                                               
LATROBE        MOSUNNY   77  54  44 SW12G21   29.77F                  
CONNELLSVILLE  CLOUDY    80  49  33 SW14G22   29.78F                  
WASHINGTON CO* PTSUNNY   80  51  36 MISG      29.78S                  
$$


SKY/WX - Weather  TMP - Temperature  DP - Dew Point  RH - Humidity
WIND - Wind Direction/Speed PRES - Barometric Pressure VSB - Visibility
WCI - Wind Chill Index E13G22 Wind - East Wind 13 mph/Gusts of 22 mph

Trending Headlines

Trending Entertainment Headlines

Portersville Radar Loop

Use the map search tool if you want to place a location marker on the radar map...

Portersville Quick Facts

National Two Day Weather Forecast


E-mail the Portersville Weather Forecast

Voice your opinion or tell us about page issues...